Wind_Speed
22 22 21 21 21 22 22 22 23 23 23 24 24 24 24 25 25 25 25 26 26 26 26 26 25 26 26 26 26 26 26 25 25 24 24 24 25 25 24 24 24 23 23
23 23 23 23 24 24 23 24 24 25 26 25 25 26 26 26 26 27 27 27 27 27 27 27 27 27 27 27 27 27 27 27 26 26 25 25 26 26 26 25 25 25 25
25 25 25 26 26 26 27 27 27 27 27 27 27 27 27 27 28 28 28 28 29 29 28 28 28 28 27 27 27 27 27 27 27 27 26 26 26 27 27 26 27 26 26
26 26 26 27 27 28 28 29 29 28 28 28 28 29 29 29 29 30 30 30 31 31 30 30 29 28 28 28 29 28 28 28 28 28 27 27 27 27 27 27 27 27 27
26 27 27 28 29 30 29 30 30 29 30 30 30 30 31 31 31 31 31 32 32 31 31 30 30 30 30 30 30 30 30 30 29 29 29 29 28 28 28 28 28 28 27
27 28 28 28 29 30 29 30 31 31 32 32 31 31 32 32 31 30 30 31 30 30 30 30 30 31 30 31 31 30 30 30 30 30 30 30 29 29 29 29 29 28 28
28 28 29 29 30 30 30 31 31 32 32 31 31 31 31 30 30 30 30 29 29 29 29 29 29 29 30 31 31 31 30 30 30 30 30 30 30 30 30 30 30 29 29
28 28 29 29 29 29 30 30 30 30 30 30 30 29 29 29 29 29 29 29 29 28 28 28 28 28 28 29 29 30 30 29 29 30 31 30 30 30 31 30 30 29 29
27 28 28 29 29 29 30 30 29 29 29 29 29 28 28 28 28 28 28 28 28 27 28 28 27 28 28 28 28 28 28 28 28 28 29 29 29 29 30 31 31 30 29
27 28 28 28 29 29 29 28 28 28 28 28 28 27 27 27 27 27 27 28 28 27 27 27 27 27 27 27 26 26 26 27 27 27 29 29 29 29 30 31 31 31 30
27 28 29 29 28 28 28 27 27 27 27 26 26 27 26 26 27 27 27 27 28 27 27 27 26 26 26 25 25 25 26 26 27 27 28 29 29 29 29 30 31 31 31
27 27 27 27 27 27 27 26 26 26 25 26 26 25 25 26 27 27 27 27 27 27 26 26 26 25 25 25 24 25 25 26 26 27 27 28 28 28 28 29 30 30 30
26 26 26 26 26 26 25 25 25 24 24 24 24 25 25 26 27 27 26 26 26 26 25 25 24 24 24 25 25 25 25 26 26 26 27 27 28 28 28 28 29 30 30
25 24 24 24 25 25 25 25 24 24 24 24 24 25 25 25 26 26 26 25 24 24 24 23 23 23 24 25 25 25 25 25 25 25 26 27 27 28 28 27 28 28 29
24 24 24 24 24 24 24 24 24 24 24 24 23 23 23 23 23 24 24 23 22 22 22 22 22 23 24 24 24 24 25 24 24 24 25 25 26 27 27 27 27 27 27
24 24 24 23 24 23 23 23 23 23 23 23 22 22 22 22 23 23 23 22 22 22 22 22 23 23 24 23 23 24 24 24 24 24 24 24 24 26 26 27 26 26 27
24 24 24 23 23 23 22 22 22 22 22 22 22 22 22 23 23 23 22 22 22 22 22 23 23 23 23 23 23 23 24 24 24 24 24 24 24 25 26 26 27 26 26
23 23 23 23 22 22 22 21 21 21 21 22 22 22 22 23 23 23 22 22 23 23 23 23 23 24 24 23 23 23 23 23 23 24 24 24 23 24 24 25 26 27 27
22 22 22 22 21 22 22 22 21 21 21 22 22 22 22 22 23 23 22 22 23 23 23 23 23 23 24 23 23 24 24 24 23 24 24 24 24 24 25 25 26 27 27
22 22 21 22 22 21 21 21 22 22 22 22 22 23 23 23 23 23 23 23 24 24 24 24 24 24 24 23 23 24 24 24 24 24 25 25 25 25 25 26 27 27 27
22 22 22 22 21 21 22 22 22 22 22 23 23 23 23 23 24 24 24 24 24 24 24 24 24 24 23 23 23 24 24 24 25 25 25 25 25 26 26 27 27 27 27
22 22 22 22 22 22 22 23 23 23 23 23 23 23 23 24 24 24 24 24 24 24 24 24 24 24 24 23 23 24 24 24 25 25 25 25 25 26 27 27 28 28 27
22 22 22 22 23 23 23 23 23 23 23 24 24 24 24 25 25 25 24 24 24 24 24 24 23 23 24 24 24 24 25 25 25 26 26 26 26 26 27 28 28 28 28
23 23 24 24 24 24 24 24 24 24 24 24 24 24 25 25 25 25 25 24 24 25 25 25 25 24 24 24 25 25 26 27 26 27 27 27 26 27 27 28 28 29 29
24 25 25 25 24 24 24 24 25 25 25 25 25 25 26 26 27 26 26 26 26 26 26 26 26 26 26 26 26 26 27 27 27 27 27 27 26 27 27 27 28 29 30
26 26 25 25 25 25 24 24 25 25 25 26 26 26 27 27 27 27 27 27 26 26 27 27 27 27 27 27 27 27 27 27 27 27 27 27 27 28 28 28 29 30 30
Wind_Direction
274 276 278 282 283 284 285 285 286 286 287 288 289 287 285 283 281 281 282 283 285 285 285 283 281 280 280 280 278 277 277 275 273 272 270 267 266 266 266 265 265 263 264
274 276 279 282 284 285 284 286 286 286 287 287 288 287 285 283 282 282 282 283 283 283 282 282 281 280 280 279 277 276 275 274 273 272 270 268 266 265 265 265 265 264 263
274 276 278 280 283 285 286 288 288 286 285 285 286 286 286 284 283 282 282 283 283 283 282 281 280 279 279 278 277 276 274 273 272 271 269 270 268 266 265 264 264 264 263
274 276 278 280 283 284 285 288 288 285 285 285 285 285 285 284 284 282 282 282 283 283 281 281 280 277 277 277 277 276 274 272 270 269 268 268 269 267 265 265 264 264 263
274 276 279 280 282 283 284 286 287 287 287 286 285 285 285 284 285 284 284 284 283 282 281 282 281 278 276 276 275 274 273 271 269 267 266 267 268 267 266 265 263 264 263
275 276 278 280 281 282 284 286 286 287 288 288 286 285 284 284 284 285 285 285 284 283 282 282 282 279 276 275 273 272 272 272 270 267 267 268 266 266 266 265 263 262 262
278 279 279 280 280 281 284 286 287 287 287 288 287 286 285 286 285 285 284 284 284 285 284 283 283 281 279 277 274 272 271 271 270 268 267 267 266 265 265 265 263 261 262
279 280 280 280 280 281 284 286 287 288 287 287 287 287 287 286 286 285 286 285 285 285 284 285 285 282 282 281 277 274 272 271 271 269 268 267 265 264 264 264 263 263 263
280 281 281 282 283 283 285 287 288 289 288 287 287 287 287 286 284 285 286 286 286 286 285 286 286 285 283 281 278 275 273 271 271 270 269 266 265 264 264 264 263 262 263
280 281 282 283 285 284 284 286 287 289 288 287 287 287 286 285 284 285 285 286 286 286 287 287 285 285 284 282 279 277 275 272 271 271 270 267 265 263 263 263 262 262 262
281 282 284 286 287 286 285 285 286 288 288 288 288 287 287 287 287 288 287 288 287 287 287 287 287 285 284 283 280 278 276 273 271 271 270 268 266 265 263 263 263 262 262
283 284 286 288 288 286 284 284 286 287 288 289 289 288 288 287 288 290 289 289 289 288 288 287 287 285 284 284 282 281 279 276 272 271 270 269 267 266 265 266 266 265 263
284 285 286 287 287 287 285 286 286 287 288 290 290 291 290 289 290 291 290 290 290 289 288 289 288 286 286 285 284 282 281 278 275 272 271 269 268 267 267 267 266 266 264
286 286 286 287 287 287 287 287 287 286 288 290 292 293 293 292 290 289 289 290 289 289 291 291 291 290 287 286 285 283 282 279 276 272 271 270 270 270 269 268 267 267 267
287 287 287 287 288 287 288 288 288 287 288 290 293 295 297 296 293 292 291 291 290 290 290 290 290 291 289 287 286 284 282 280 277 275 273 272 271 271 270 269 268 267 267
286 287 289 288 289 289 288 287 286 287 288 291 294 295 297 298 298 296 294 291 290 290 291 291 291 292 291 289 287 286 284 281 278 276 274 273 273 272 271 271 270 268 268
286 287 288 289 290 290 289 288 288 289 292 294 296 298 298 298 298 296 294 293 291 292 293 292 292 292 291 288 287 286 283 281 278 276 275 276 275 273 272 272 271 271 272
286 286 287 288 288 290 290 289 288 288 291 293 294 295 296 297 298 297 295 293 291 292 292 293 293 292 290 288 287 286 284 283 281 280 280 279 276 274 273 274 274 274 274
286 286 287 286 285 286 288 289 289 289 291 293 294 294 295 295 297 297 295 294 292 292 292 291 292 293 291 289 288 288 287 284 282 281 280 279 277 276 276 276 277 278 275
285 286 287 287 286 286 288 289 290 289 290 292 293 294 294 294 296 298 298 295 293 293 293 292 291 293 293 291 291 290 288 285 283 282 281 279 279 277 276 277 278 278 277
285 286 286 287 289 289 289 290 291 291 291 291 292 294 294 295 296 298 299 296 295 295 295 295 294 293 292 292 292 290 288 285 284 284 282 280 279 279 278 278 277 277 277
285 285 286 286 289 291 292 292 293 293 292 294 295 296 295 296 297 299 299 298 297 296 296 296 296 295 293 292 292 291 289 287 286 284 283 281 279 279 279 279 279 278 277
285 285 286 287 288 289 290 291 291 291 291 291 293 294 295 296 298 299 298 298 297 295 295 295 295 294 294 292 291 291 290 288 287 287 285 283 281 280 280 279 279 279 278
284 285 286 288 289 289 288 288 289 291 291 291 293 294 294 295 297 297 297 296 295 295 294 294 294 294 294 294 293 292 291 290 289 288 286 284 283 282 281 280 279 279 279
284 285 285 287 288 288 288 288 288 290 291 292 293 294 295 296 296 297 296 296 296 296 296 295 295 294 294 293 293 292 291 291 290 289 287 286 284 283 283 281 280 280 279
284 284 285 286 287 287 287 288 288 289 291 292 292 293 295 295 296 296 296 295 296 297 297 296 296 295 294 294 295 295 294 292 291 290 288 287 286 285 284 282 281 280 279
Height
5789 5788 5788 5787 5787 5786 5786 5784 5783 5782 5781 5780 5779 5778 5777 5776 5775 5774 5774 5773 5772 5771 5770 5769 5769 5768 5767 5767 5766 5766 5766 5766 5767 5767 5767 5768 5769 5769 5770 5771 5772 5773 5773
5783 5782 5782 5781 5781 5780 5779 5777 5776 5775 5774 5772 5771 5770 5769 5768 5767 5766 5766 5765 5764 5763 5762 5761 5761 5760 5760 5759 5758 5758 5758 5758 5758 5759 5760 5761 5761 5762 5763 5764 5765 5766 5766
5776 5776 5775 5775 5774 5773 5772 5770 5769 5767 5766 5765 5763 5762 5761 5760 5759 5758 5757 5756 5756 5755 5754 5753 5752 5752 5751 5751 5750 5750 5750 5750 5750 5751 5752 5753 5754 5754 5755 5756 5757 5758 5759
5769 5769 5768 5767 5766 5765 5764 5762 5760 5759 5757 5756 5755 5753 5752 5751 5750 5749 5748 5747 5746 5745 5745 5744 5743 5743 5742 5742 5741 5741 5741 5741 5741 5742 5743 5744 5745 5746 5747 5749 5749 5750 5752
5762 5761 5761 5760 5758 5757 5755 5754 5752 5750 5748 5747 5745 5744 5743 5742 5740 5739 5738 5737 5736 5736 5735 5734 5733 5733 5733 5732 5732 5731 5731 5731 5732 5733 5734 5735 5736 5737 5739 5740 5741 5742 5743
5754 5754 5752 5751 5750 5748 5746 5745 5743 5741 5739 5737 5736 5734 5733 5732 5731 5729 5728 5727 5726 5725 5725 5724 5723 5722 5722 5722 5721 5721 5721 5721 5722 5723 5724 5726 5727 5728 5729 5731 5732 5734 5735
5746 5745 5744 5743 5742 5739 5738 5736 5734 5732 5730 5728 5726 5725 5723 5722 5721 5720 5719 5718 5717 5716 5715 5714 5713 5712 5711 5710 5710 5710 5711 5711 5712 5713 5714 5715 5717 5719 5720 5722 5723 5725 5726
5738 5737 5735 5734 5733 5731 5729 5727 5725 5723 5721 5719 5717 5716 5715 5714 5712 5711 5710 5709 5708 5707 5706 5705 5704 5703 5701 5700 5700 5700 5701 5701 5702 5703 5704 5705 5707 5708 5710 5712 5713 5715 5717
5730 5728 5727 5725 5724 5722 5720 5718 5716 5714 5712 5710 5709 5708 5706 5706 5704 5703 5702 5701 5700 5699 5697 5696 5695 5693 5692 5691 5691 5691 5692 5692 5692 5693 5694 5695 5696 5698 5700 5702 5704 5706 5708
5722 5720 5718 5716 5715 5714 5712 5710 5708 5706 5704 5702 5701 5700 5699 5698 5696 5695 5694 5693 5692 5691 5689 5688 5686 5685 5684 5683 5682 5682 5682 5683 5683 5684 5685 5685 5687 5689 5690 5692 5694 5696 5698
5713 5712 5710 5708 5707 5705 5704 5702 5700 5698 5697 5695 5694 5693 5691 5690 5689 5687 5686 5685 5683 5682 5681 5679 5678 5677 5675 5674 5674 5673 5673 5674 5674 5675 5676 5677 5678 5679 5681 5682 5684 5686 5688
5705 5704 5702 5700 5699 5698 5696 5695 5693 5691 5690 5688 5687 5685 5684 5682 5681 5679 5678 5676 5675 5674 5672 5671 5670 5669 5668 5667 5666 5665 5665 5665 5666 5666 5667 5668 5669 5670 5672 5673 5674 5675 5677
5698 5696 5695 5693 5692 5690 5689 5687 5686 5684 5683 5681 5680 5679 5677 5675 5674 5672 5670 5668 5667 5666 5664 5663 5662 5661 5660 5659 5658 5658 5657 5657 5657 5658 5659 5660 5661 5662 5663 5664 5664 5665 5667
5690 5689 5687 5686 5684 5683 5681 5680 5679 5677 5676 5675 5673 5672 5670 5668 5667 5665 5663 5661 5660 5658 5657 5656 5655 5654 5653 5652 5651 5650 5649 5649 5649 5649 5650 5651 5652 5652 5653 5654 5655 5656 5657
5683 5682 5680 5679 5677 5676 5674 5673 5672 5671 5670 5668 5667 5665 5664 5662 5660 5658 5656 5654 5653 5651 5650 5649 5648 5647 5646 5644 5643 5642 5641 5641 5641 5641 5642 5643 5643 5644 5644 5645 5646 5647 5648
5676 5675 5674 5672 5671 5669 5668 5667 5665 5664 5663 5661 5660 5659 5658 5656 5653 5651 5649 5648 5646 5645 5644 5643 5641 5640 5639 5637 5636 5635 5634 5633 5633 5633 5634 5634 5635 5635 5636 5636 5637 5638 5639
5670 5668 5667 5666 5664 5663 5662 5660 5659 5658 5657 5655 5654 5653 5651 5650 5647 5645 5643 5641 5640 5639 5638 5636 5635 5633 5632 5630 5629 5628 5627 5626 5625 5626 5626 5626 5627 5627 5627 5628 5628 5629 5629
5663 5661 5660 5659 5658 5657 5655 5655 5654 5653 5652 5650 5648 5647 5645 5643 5641 5639 5637 5635 5634 5633 5631 5630 5628 5627 5625 5623 5622 5621 5620 5619 5618 5618 5618 5618 5619 5619 5619 5619 5619 5620 5620
5656 5655 5654 5653 5652 5651 5649 5648 5647 5646 5645 5644 5643 5641 5639 5637 5635 5633 5631 5629 5628 5626 5625 5623 5621 5620 5618 5616 5615 5614 5613 5612 5612 5611 5611 5610 5610 5610 5610 5611 5611 5611 5611
5650 5649 5648 5646 5645 5644 5643 5642 5641 5640 5639 5637 5636 5634 5633 5630 5628 5626 5624 5622 5621 5619 5618 5616 5614 5612 5611 5609 5608 5607 5605 5605 5604 5604 5603 5603 5602 5602 5602 5602 5602 5602 5602
5643 5642 5641 5640 5639 5638 5637 5636 5634 5633 5632 5631 5629 5628 5626 5624 5622 5619 5617 5615 5614 5612 5610 5609 5607 5605 5603 5602 5601 5599 5598 5597 5596 5596 5595 5595 5594 5594 5593 5593 5593 5592 5592
5637 5636 5635 5634 5632 5631 5630 5629 5628 5626 5625 5624 5622 5621 5619 5617 5615 5613 5610 5608 5606 5605 5603 5601 5599 5598 5596 5595 5593 5592 5590 5589 5588 5587 5587 5586 5585 5585 5584 5584 5584 5583 5583
5629 5629 5628 5627 5625 5624 5623 5622 5621 5619 5618 5617 5615 5613 5612 5610 5607 5605 5603 5601 5599 5597 5595 5594 5592 5591 5589 5587 5585 5584 5582 5581 5580 5579 5578 5577 5576 5576 5575 5575 5574 5574 5573
5622 5621 5620 5619 5618 5617 5616 5615 5614 5612 5611 5609 5608 5606 5604 5602 5600 5598 5596 5594 5592 5590 5588 5586 5585 5583 5581 5580 5578 5576 5574 5573 5571 5570 5569 5568 5567 5566 5565 5565 5564 5564 5563
5615 5614 5613 5612 5611 5610 5608 5607 5606 5605 5603 5602 5600 5599 5597 5594 5592 5590 5588 5586 5584 5582 5581 5579 5577 5575 5573 5571 5570 5568 5566 5564 5562 5561 5559 5558 5557 5557 5556 5555 5554 5554 5553
5607 5606 5605 5604 5603 5602 5601 5600 5598 5597 5596 5594 5592 5591 5589 5587 5584 5582 5580 5578 5577 5575 5573 5571 5569 5567 5565 5563 5561 5559 5557 5555 5553 5552 5550 5549 5548 5547 5546 5545 5544 5543 5543